Tracking 19170 objects as of 23-May-2018
HD Live streaming from Space Station
objects crossing your sky now

COSMOS 1666

Track COSMOS 1666 now!
10-day predictions
COSMOS 1666 is classified as:


NORAD ID: 15889
Int'l Code: 1985-058A
Perigee: 507.5 km
Apogee: 530.0 km
Inclination: 82.5 °
Period: 94.9 minutes
Semi major axis: 6889 km
RCS: 8.3822 m2 (large)
Launch date: July 8, 1985
Source: Commonwealth of Independent States (former USSR) (CIS)
Launch site: PLESETSK MISSILE AND SPACE COMPLEX (PKMTR)
aabbcc
Your satellite tracking list
Your tracking list is empty




NASA's NSSDC Master Catalog

Two Line Element Set (TLE):
1 15889U 85058A   18142.62409824 +.00000535 +00000-0 +24546-4 0  9996
2 15889 082.4895 018.6752 0016334 325.6791 093.8901 15.18100025793369
Source of the keplerian elements: AFSPC